EN

Hourly Weather Chlopy

Today, 19 October, Monday

Time Temperature Precipitation Wind Pressure Humidity
00:00 +6°C° 0.3 mm 5 mps 761 mmHg 78%
01:00 +5°C° 0 mm 6 mps 762 mmHg 82%
02:00 +5°C° 0.1 mm 6 mps 762 mmHg 81%
03:00 +5°C° 0.1 mm 6 mps 762 mmHg 79%
04:00 +4°C° 0.1 mm 6 mps 762 mmHg 77%
05:00 +4°C° 0 mm 6 mps 762 mmHg 79%
06:00 +4°C° 0 mm 6 mps 762 mmHg 80%
07:00 +4°C° 0 mm 7 mps 763 mmHg 80%
08:00 +5°C° 0 mm 7 mps 763 mmHg 76%
09:00 +8°C° 0 mm 7 mps 763 mmHg 72%
10:00 +9°C° 0 mm 7 mps 764 mmHg 68%
11:00 +9°C° 0.2 mm 7 mps 764 mmHg 68%
12:00 +9°C° 0.2 mm 8 mps 764 mmHg 68%
13:00 +9°C° 0.2 mm 8 mps 764 mmHg 68%
14:00 +9°C° 0.1 mm 7 mps 764 mmHg 69%
15:00 +9°C° 0.1 mm 7 mps 764 mmHg 70%
16:00 +8°C° 0.1 mm 6 mps 764 mmHg 72%
17:00 +8°C° 0.1 mm 6 mps 764 mmHg 75%
18:00 +7°C° 0.1 mm 5 mps 764 mmHg 77%
19:00 +7°C° 0.1 mm 5 mps 765 mmHg 80%
20:00 +6°C° 0 mm 5 mps 765 mmHg 83%
21:00 +6°C° 0 mm 5 mps 765 mmHg 85%
22:00 +5°C° 0 mm 4 mps 765 mmHg 88%
23:00 +5°C° 0 mm 4 mps 765 mmHg 89%

Tomorrow, 20 October, Tuesday

Time Temperature Precipitation Wind Pressure Humidity
00:00 +5°C° 0 mm 4 mps 766 mmHg 90%
01:00 +5°C° 0 mm 4 mps 766 mmHg 90%
02:00 +5°C° 0 mm 4 mps 766 mmHg 89%
03:00 +5°C° 0 mm 4 mps 765 mmHg 88%
04:00 +5°C° 0 mm 4 mps 765 mmHg 87%
05:00 +5°C° 0 mm 4 mps 765 mmHg 87%
06:00 +5°C° 0 mm 4 mps 765 mmHg 86%
07:00 +5°C° 0 mm 5 mps 765 mmHg 86%
08:00 +6°C° 0 mm 5 mps 765 mmHg 82%
09:00 +7°C° 0 mm 6 mps 764 mmHg 78%
10:00 +8°C° 0 mm 6 mps 764 mmHg 74%
11:00 +9°C° 0 mm 6 mps 764 mmHg 71%
12:00 +10°C° 0 mm 7 mps 763 mmHg 67%
13:00 +10°C° 0 mm 7 mps 763 mmHg 64%
14:00 +10°C° 0 mm 7 mps 762 mmHg 65%
15:00 +10°C° 0 mm 7 mps 761 mmHg 66%
16:00 +10°C° 0 mm 7 mps 761 mmHg 67%
17:00 +9°C° 0 mm 6 mps 760 mmHg 69%
18:00 +9°C° 0 mm 6 mps 760 mmHg 71%
19:00 +9°C° 0 mm 6 mps 759 mmHg 74%
20:00 +9°C° 0.1 mm 6 mps 759 mmHg 75%
21:00 +9°C° 0.1 mm 5 mps 759 mmHg 77%
22:00 +9°C° 0.1 mm 5 mps 759 mmHg 79%
23:00 +9°C° 0.5 mm 5 mps 759 mmHg 83%

Day after tomorrow, 21 October, Wednesday

Time Temperature Precipitation Wind Pressure Humidity
00:00 +9°C° 0.5 mm 5 mps 758 mmHg 86%
01:00 +9°C° 0.5 mm 5 mps 758 mmHg 90%
02:00 +9°C° 0 mm 6 mps 758 mmHg 90%
03:00 +9°C° 0 mm 6 mps 758 mmHg 91%
04:00 +9°C° 0 mm 6 mps 758 mmHg 91%
05:00 +9°C° 0 mm 6 mps 758 mmHg 93%
06:00 +9°C° 0 mm 5 mps 758 mmHg 94%
07:00 +9°C° 0 mm 5 mps 758 mmHg 95%
08:00 +10°C° 0.1 mm 5 mps 758 mmHg 95%
09:00 +10°C° 0.1 mm 5 mps 757 mmHg 94%
10:00 +10°C° 0.1 mm 5 mps 757 mmHg 94%
11:00 +10°C° 0.3 mm 5 mps 757 mmHg 92%
12:00 +11°C° 0.3 mm 6 mps 757 mmHg 90%
13:00 +11°C° 0.3 mm 6 mps 757 mmHg 89%
14:00 +11°C° 0.1 mm 6 mps 756 mmHg 84%
15:00 +11°C° 0.1 mm 6 mps 755 mmHg 80%
16:00 +11°C° 0.1 mm 7 mps 755 mmHg 76%
17:00 +11°C° 0.1 mm 7 mps 755 mmHg 74%
18:00 +11°C° 0.1 mm 7 mps 755 mmHg 73%
19:00 +11°C° 0.1 mm 7 mps 754 mmHg 72%
20:00 +12°C° 0 mm 8 mps 754 mmHg 69%
21:00 +13°C° 0 mm 9 mps 754 mmHg 67%
22:00 +14°C° 0 mm 10 mps 753 mmHg 64%
23:00 +14°C° 0 mm 11 mps 754 mmHg 68%

22 October, Thursday

Time Temperature Precipitation Wind Pressure Humidity
00:00 +14°C° 0 mm 11 mps 754 mmHg 72%
01:00 +14°C° 0 mm 11 mps 755 mmHg 76%
02:00 +13°C° 0 mm 10 mps 755 mmHg 79%
03:00 +13°C° 0 mm 10 mps 755 mmHg 81%
04:00 +12°C° 0 mm 9 mps 756 mmHg 83%
05:00 +12°C° 0 mm 9 mps 756 mmHg 85%
06:00 +12°C° 0 mm 9 mps 756 mmHg 87%
07:00 +12°C° 0 mm 8 mps 756 mmHg 89%
08:00 +13°C° 0 mm 9 mps 756 mmHg 85%
09:00 +15°C° 0 mm 9 mps 757 mmHg 81%
10:00 +16°C° 0 mm 9 mps 757 mmHg 77%
11:00 +17°C° 0 mm 9 mps 757 mmHg 73%
12:00 +17°C° 0 mm 9 mps 757 mmHg 70%
13:00 +18°C° 0 mm 9 mps 757 mmHg 66%
14:00 +17°C° 0.1 mm 8 mps 757 mmHg 69%
15:00 +17°C° 0.1 mm 7 mps 757 mmHg 72%
16:00 +16°C° 0.1 mm 6 mps 757 mmHg 75%
17:00 +16°C° 0 mm 6 mps 757 mmHg 78%
18:00 +15°C° 0 mm 5 mps 757 mmHg 81%
19:00 +14°C° 0 mm 5 mps 757 mmHg 84%
20:00 +14°C° 0 mm 5 mps 757 mmHg 86%
21:00 +14°C° 0 mm 5 mps 757 mmHg 87%
22:00 +14°C° 0 mm 5 mps 757 mmHg 88%
23:00 +14°C° 0.3 mm 4 mps 757 mmHg 91%

23 October, Friday

Time Temperature Precipitation Wind Pressure Humidity
00:00 +14°C° 0.3 mm 4 mps 757 mmHg 93%
01:00 +14°C° 0.3 mm 4 mps 757 mmHg 95%
02:00 +13°C° 0.6 mm 4 mps 757 mmHg 96%
03:00 +13°C° 0.6 mm 3 mps 756 mmHg 96%
04:00 +13°C° 0.6 mm 3 mps 756 mmHg 96%
05:00 +13°C° 0.1 mm 3 mps 756 mmHg 94%
06:00 +12°C° 0.1 mm 4 mps 757 mmHg 93%
07:00 +12°C° 0.1 mm 4 mps 757 mmHg 91%
08:00 +12°C° 0.1 mm 4 mps 757 mmHg 89%
09:00 +12°C° 0.1 mm 4 mps 757 mmHg 88%
10:00 +12°C° 0.1 mm 4 mps 757 mmHg 86%
11:00 +12°C° 0 mm 4 mps 758 mmHg 82%
12:00 +12°C° 0 mm 4 mps 758 mmHg 79%
13:00 +13°C° 0 mm 4 mps 758 mmHg 76%
14:00 +12°C° 0 mm 4 mps 758 mmHg 77%
15:00 +12°C° 0 mm 3 mps 758 mmHg 79%
16:00 +11°C° 0 mm 3 mps 758 mmHg 80%
17:00 +11°C° 0 mm 3 mps 758 mmHg 81%
18:00 +10°C° 0 mm 3 mps 758 mmHg 83%
19:00 +10°C° 0 mm 3 mps 759 mmHg 84%
20:00 +10°C° 0 mm 2 mps 759 mmHg 85%
21:00 +9°C° 0 mm 2 mps 759 mmHg 86%
22:00 +9°C° 0 mm 2 mps 759 mmHg 87%
23:00 +10°C° 0 mm 1 mps 759 mmHg 87%

24 October, Saturday

Time Temperature Precipitation Wind Pressure Humidity
00:00 +9°C° 0 mm 1 mps 759 mmHg 87%
01:00 +9°C° 0 mm 1 mps 760 mmHg 87%
02:00 +9°C° 0 mm 1 mps 759 mmHg 88%
03:00 +9°C° 0 mm 1 mps 759 mmHg 89%
04:00 +9°C° 0 mm 1 mps 759 mmHg 90%
05:00 +8°C° 0 mm 2 mps 760 mmHg 90%
06:00 +8°C° 0 mm 2 mps 760 mmHg 89%
07:00 +8°C° 0 mm 3 mps 760 mmHg 89%
08:00 +10°C° 0.1 mm 4 mps 760 mmHg 88%
09:00 +11°C° 0.1 mm 4 mps 760 mmHg 87%
10:00 +12°C° 0.1 mm 5 mps 760 mmHg 87%
11:00 +12°C° 0 mm 5 mps 760 mmHg 86%
12:00 +11°C° 0 mm 6 mps 761 mmHg 85%
13:00 +11°C° 0 mm 6 mps 761 mmHg 85%
14:00 +11°C° 0.1 mm 6 mps 761 mmHg 85%
15:00 +12°C° 0.1 mm 5 mps 761 mmHg 85%
16:00 +12°C° 0.1 mm 5 mps 761 mmHg 85%
17:00 +10°C° 0.1 mm 5 mps 762 mmHg 86%
18:00 +10°C° 0.1 mm 5 mps 762 mmHg 87%
19:00 +10°C° 0.1 mm 5 mps 763 mmHg 89%
20:00 +10°C° 0 mm 4 mps 763 mmHg 90%
21:00 +10°C° 0 mm 4 mps 763 mmHg 91%
22:00 +8°C° 0 mm 4 mps 764 mmHg 93%
23:00 +8°C° 0 mm 4 mps 764 mmHg 93%

25 October, Sunday

Time Temperature Precipitation Wind Pressure Humidity
00:00 +8°C° 0 mm 4 mps 764 mmHg 93%
01:00 +8°C° 0 mm 4 mps 764 mmHg 94%
02:00 +9°C° 0 mm 3 mps 764 mmHg 94%
03:00 +8°C° 0 mm 3 mps 764 mmHg 94%
04:00 +8°C° 0 mm 3 mps 765 mmHg 94%
05:00 +8°C° 0 mm 2 mps 765 mmHg 94%
06:00 +8°C° 0 mm 2 mps 765 mmHg 93%
07:00 +8°C° 0 mm 2 mps 765 mmHg 93%
08:00 +9°C° 0 mm 2 mps 765 mmHg 88%
09:00 +10°C° 0 mm 3 mps 765 mmHg 84%
10:00 +11°C° 0 mm 3 mps 766 mmHg 79%
11:00 +12°C° 0 mm 3 mps 765 mmHg 75%
12:00 +14°C° 0 mm 2 mps 765 mmHg 72%
13:00 +15°C° 0 mm 2 mps 765 mmHg 68%
14:00 +13°C° 0 mm 3 mps 765 mmHg 71%
15:00 +12°C° 0 mm 3 mps 765 mmHg 74%
16:00 +12°C° 0 mm 3 mps 765 mmHg 77%
17:00 +11°C° 0 mm 3 mps 765 mmHg 79%
18:00 +10°C° 0 mm 4 mps 764 mmHg 82%
19:00 +8°C° 0 mm 4 mps 764 mmHg 84%
20:00 +8°C° 0 mm 4 mps 764 mmHg 85%
21:00 +8°C° 0 mm 5 mps 764 mmHg 86%
22:00 +8°C° 0 mm 5 mps 764 mmHg 87%
23:00 +8°C° 0 mm 5 mps 764 mmHg 88%
Show more